星链-11228 (STARLINK-11228)

导读 | 星芒AI

STARLINK-11228 是 SpaceX Starlink 项目中的一颗低轨通信卫星,属于第 53 批部署的星链卫星之一。该卫星于 2022 年 11 月发射,旨在为全球用户提供高速互联网服务。它运行在约 550 公里的轨道高度,采用先进的推进系统和激光通信技术,以提高网络效率和稳定性。Starlink 卫星群致力于构建全球覆盖的宽带网络,特别是在偏远和网络基础设施薄弱的地区。

基本信息
目录编号:
60398
目录名称:
STARLINK-11228
国际标识:
2024-141A
轨道中心:
EARTH
卫星名称:
星链-11228 (STARLINK-11228)
卫星全名:
星链-11228 (STARLINK-11228)
卫星状态:
在轨 (已飞行445 天)
发射日期:
2024-08-10 UTC
国别 :
美国 (US)
星等 :
--
轨道信息
数据来源 国际轨道数据
星历时间: 2025-10-28T20:26:14+0800
21小时前
查看轨道信息
半长轴: 6737.855km
偏心率: 0.0001258
轨道倾角: 53.159°
近地点辐角 90.623°
升交点赤经 17.841°
平近点角 269.493°
近地点: 358.872km
远地点: 360.568km
周期: 91.736分钟
每日圈数: 15.697134
详细信息
卫星平台:
Starlink v2.0 mini
运营商:
太空探索技术公司
运营商所在国:
美国
制造商(研发单位):
太空探索技术公司
制造商所在国:
美国
使用方式:
暂无
卫星简介
星链(Starlink)计划是由太空探索技术公司(SpaceX)提出的一个巨型低轨卫星互联网星座项目,计划在2019年至2024年间在太空搭建由约1.2万颗卫星组成的“星链”网络,其中1584颗将部署在地球上空550千米处的近地轨道,并从2020年开始工作。该卫星仍在工作。
2D轨道图
3D轨道图
轨道高度分析图
轨道倾角分析图
轨道综合分析图
查看轨道综合分析图